Torna al catalogo

COSMOS 1975

AttivoMilitarePO
NORAD 19573·PAYLOAD·🇷🇺 Russia

Lanciato Oct 11, 1988 da Plesetsk Cosmodrome

Loading…

Prossimi Passaggi (prossime 24 ore)

TLE

AggiornatoSource: Space-Track

Epoca: Sep 14, 2026, 08:54 UTC

1 19573U 88093A   26257.37116803  .00005182  00000-0  17543-3 0  9993
2 19573  82.5161 287.9313 0010025 215.1909 144.8670 15.30310105 48245

Traccia COSMOS 1975 in tempo reale con AllMySat

Download on the App Store